KK4OHF Weather Reports


time (UTC)temp
C
wind
direction
speed
KPH
gust
KPH
rain 1hr
cm
rain 24hr
cm
rain mn
cm
humidity
%
barometer
mb
20260904193506 34 114 1.6 8.0 0.00 0.00 0.00 55 1015.2
20260904192504 33 15 1.6 3.2 0.00 0.00 0.00 55 1015.4
20260904192005 35 62 1.6 4.8 0.00 0.00 0.00 56 1015.6
20260904191006 34 100 1.6 4.8 0.00 0.00 0.00 55 1015.8
20260904190505 34 145 4.8 11.3 0.00 0.00 0.00 53 1015.8
20260904190005 34 108 4.8 8.0 0.00 0.00 0.00 55 1016.0
20260904185504 34 22 1.6 4.8 0.00 0.00 0.00 58 1016.0
20260904185005 33 11 3.2 9.7 0.00 0.00 0.00 54 1016.0
20260904184505 33 31 1.6 4.8 0.00 0.00 0.00 56 1016.2
20260904182505 33 224 1.6 4.8 0.00 0.00 0.00 57 1016.6
20260904181505 33 79 3.2 9.7 0.00 0.00 0.00 58 1016.6
20260904181005 33 13 3.2 4.8 0.00 0.00 0.00 60 1016.8
20260904180505 33 30 1.6 4.8 0.00 0.00 0.00 61 1016.8
20260904180005 33 11 4.8 11.3 0.00 0.00 0.00 57 1016.9
20260904175504 33 93 1.6 3.2 0.00 0.00 0.00 62 1016.9
20260904175005 32 347 3.2 4.8 0.00 0.00 0.00 62 1016.9
20260904174506 32 355 0.0 3.2 0.00 0.00 0.00 63 1016.9
20260904174005 32 357 1.6 4.8 0.00 0.00 0.00 62 1016.9
20260904173506 32 5 3.2 4.8 0.00 0.00 0.00 62 1016.9
20260904173006 32 1 1.6 4.8 0.00 0.00 0.00 62 1017.2
20260904172505 32 17 3.2 4.8 0.00 0.00 0.00 63 1017.2
20260904171506 33 101 1.6 4.8 0.00 0.00 0.00 62 1017.2
20260904171005 33 151 1.6 8.0 0.00 0.00 0.00 57 1017.4
20260904170004 33 94 3.2 11.3 0.00 0.00 0.00 60 1017.4
20260904165004 33 183 1.6 3.2 0.00 0.00 0.00 61 1017.4
20260904164505 32 167 1.6 4.8 0.00 0.00 0.00 62 1017.4
20260904164004 32 305 1.6 4.8 0.00 0.00 0.00 64 1017.6
20260904163505 32 70 1.6 4.8 0.00 0.00 0.00 64 1017.6
20260904161504 32 16 3.2 8.0 0.00 0.00 0.00 64 1017.9
20260904161006 31 355 1.6 4.8 0.00 0.00 0.00 64 1017.9
20260904160005 31 106 3.2 9.7 0.00 0.00 0.00 67 1017.9
20260904155505 31 11 3.2 9.7 0.00 0.00 0.00 65 1017.9
20260904155004 31 20 3.2 9.7 0.00 0.00 0.00 66 1017.9
20260904154005 31 117 1.6 4.8 0.00 0.00 0.00 68 1017.9
20260904153505 31 80 1.6 8.0 0.00 0.00 0.00 69 1017.9
20260904153005 31 49 1.6 3.2 0.00 0.00 0.00 68 1017.8
20260904152505 30 20 0.0 1.6 0.00 0.00 0.00 67 1017.8
20260904152004 30 20 0.0 3.2 0.00 0.00 0.00 70 1017.8
20260904151505 30 0 1.6 4.8 0.00 0.00 0.00 68 1017.9
20260904151006 30 17 1.6 3.2 0.00 0.00 0.00 70 1017.9
20260904150505 30 150 1.6 3.2 0.00 0.00 0.00 69 1017.9
20260904150005 30 150 0.0 1.6 0.00 0.00 0.00 70 1017.7
20260904145005 30 150 0.0 1.6 0.00 0.00 0.00 71 1017.7
20260904144504 30 150 0.0 3.2 0.00 0.00 0.00 70 1017.7
20260904144005 30 150 0.0 3.2 0.00 0.00 0.00 74 1017.6
20260904143505 29 284 0.0 1.6 0.00 0.00 0.00 75 1017.6
20260904143005 28 73 0.0 1.6 0.00 0.00 0.00 76 1017.5
20260904142005 28 9 1.6 4.8 0.00 0.00 0.00 78 1017.4
20260904141505 28 124 1.6 1.6 0.00 0.00 0.00 78 1017.4
20260904141005 28 124 1.6 3.2 0.00 0.00 0.00 78 1017.4
20260904140006 27 124 0.0 1.6 0.00 0.00 0.00 82 1017.4
20260904135506 27 124 1.6 3.2 0.00 0.00 0.00 82 1017.4
20260904135006 27 124 1.6 3.2 0.00 0.00 0.00 84 1017.4
20260904134505 26 124 1.6 3.2 0.00 0.00 0.00 87 1017.4
20260904134006 25 124 1.6 4.8 0.00 0.00 0.00 89 1017.4
20260904133506 24 49 0.0 1.6 0.00 0.00 0.00 89 1017.4
20260904133005 24 49 0.0 1.6 0.00 0.00 0.00 89 1017.3
20260904132505 24 49 0.0 1.6 0.00 0.00 0.00 89 1017.3
20260904131505 23 49 1.6 3.2 0.00 0.00 0.00 89 1017.3
20260904131005 23 49 0.0 3.2 0.00 0.00 0.00 89 1017.4
20260904130506 23 49 0.0 1.6 0.00 0.00 0.00 89 1017.4
20260904130005 23 49 0.0 0.0 0.00 0.00 0.00 89 1017.3
20260904125505 23 49 0.0 0.0 0.00 0.00 0.00 89 1017.3
20260904125005 23 49 0.0 0.0 0.00 0.00 0.00 89 1017.3
20260904124505 22 49 0.0 0.0 0.00 0.00 0.00 89 1017.3
20260904124005 22 49 0.0 0.0 0.00 0.00 0.00 89 1017.2
20260904123504 22 49 0.0 0.0 0.00 0.00 0.00 89 1017.2
20260904122505 22 49 0.0 0.0 0.00 0.00 0.00 90 1017.2
20260904122005 22 49 0.0 0.0 0.00 0.00 0.00 90 1017.1
20260904121505 22 49 0.0 0.0 0.00 0.00 0.00 90 1017.1
20260904120505 22 49 0.0 0.0 0.00 0.00 0.00 89 1016.9
20260904120004 21 49 0.0 0.0 0.00 0.00 0.00 90 1016.9
20260904115004 21 49 0.0 0.0 0.00 0.00 0.00 90 1016.9
20260904114004 21 49 0.0 0.0 0.00 0.00 0.00 90 1016.8
20260904113505 21 49 0.0 0.0 0.00 0.00 0.00 90 1016.8
20260904113005 22 49 0.0 0.0 0.00 0.00 0.00 90 1016.4
20260904112505 22 49 0.0 0.0 0.00 0.00 0.00 90 1016.4
20260904112005 22 49 0.0 0.0 0.00 0.00 0.00 90 1016.4
20260904111505 22 49 0.0 0.0 0.00 0.00 0.00 89 1016.4
20260904111005 22 49 0.0 0.0 0.00 0.00 0.00 90 1016.4
20260904110505 22 49 0.0 0.0 0.00 0.00 0.00 89 1016.4
20260904110006 22 49 0.0 0.0 0.00 0.00 0.00 90 1016.3
20260904105505 22 49 0.0 0.0 0.00 0.00 0.00 90 1016.3
20260904105005 22 49 0.0 0.0 0.00 0.00 0.00 90 1016.3
20260904104005 22 49 0.0 0.0 0.00 0.00 0.00 90 1016.3
20260904103505 22 49 0.0 0.0 0.00 0.00 0.00 90 1016.3
20260904102505 22 49 0.0 0.0 0.00 0.00 0.00 89 1016.3
20260904102005 22 49 0.0 0.0 0.00 0.00 0.00 89 1016.3
20260904101506 22 49 0.0 0.0 0.00 0.00 0.00 89 1016.3
20260904101005 22 49 0.0 0.0 0.00 0.00 0.00 89 1016.3
20260904100505 22 49 0.0 0.0 0.00 0.00 0.00 89 1016.3
20260904100004 22 49 0.0 0.0 0.00 0.00 0.00 89 1016.3
20260904095504 22 49 0.0 0.0 0.00 0.00 0.00 89 1016.3
20260904095005 22 49 0.0 0.0 0.00 0.00 0.00 90 1016.3
20260904094504 22 49 0.0 0.0 0.00 0.00 0.00 90 1016.2
20260904094005 22 49 0.0 0.0 0.00 0.00 0.00 90 1016.1
20260904093006 22 49 0.0 0.0 0.00 0.00 0.00 89 1016.1
20260904092505 22 49 0.0 0.0 0.00 0.00 0.00 89 1016.1
20260904092004 22 49 0.0 0.0 0.00 0.00 0.00 89 1016.1
20260904091505 22 49 0.0 0.0 0.00 0.00 0.00 89 1016.1
20260904090506 22 49 0.0 0.0 0.00 0.00 0.00 89 1016.1
20260904085505 22 49 0.0 0.0 0.00 0.00 0.00 89 1016.1
20260904085006 22 49 0.0 0.0 0.00 0.00 0.00 89 1016.1
20260904084505 22 49 0.0 0.0 0.00 0.00 0.00 89 1016.1
20260904084005 23 49 0.0 0.0 0.00 0.00 0.00 89 1016.1
20260904083506 23 49 0.0 0.0 0.00 0.00 0.00 89 1016.1
20260904083006 23 49 0.0 0.0 0.00 0.00 0.00 89 1016.1
20260904082505 23 49 0.0 0.0 0.00 0.00 0.00 89 1016.1
20260904082005 23 49 0.0 0.0 0.00 0.00 0.00 89 1015.9
20260904081504 23 49 0.0 0.0 0.00 0.00 0.00 89 1015.9
20260904081006 23 49 0.0 0.0 0.00 0.00 0.00 89 1015.9
20260904080505 23 49 0.0 0.0 0.00 0.00 0.00 89 1015.9
20260904080004 23 49 0.0 0.0 0.00 0.00 0.00 89 1015.9
20260904075505 23 49 0.0 0.0 0.00 0.00 0.00 89 1015.9
20260904075005 23 49 0.0 0.0 0.00 0.00 0.00 89 1015.9
20260904074504 23 49 0.0 0.0 0.00 0.00 0.00 89 1016.0
20260904074005 23 49 0.0 0.0 0.00 0.00 0.00 89 1015.9
20260904073505 23 49 0.0 0.0 0.00 0.00 0.00 89 1015.9
20260904073005 23 49 0.0 0.0 0.00 0.00 0.00 89 1015.8
20260904072505 23 49 0.0 0.0 0.00 0.00 0.00 89 1015.8
20260904072005 23 49 0.0 0.0 0.00 0.00 0.00 89 1015.8
20260904071505 23 49 0.0 0.0 0.00 0.00 0.00 89 1015.9
20260904071005 23 49 0.0 0.0 0.00 0.00 0.00 89 1015.9
20260904070505 23 49 0.0 0.0 0.00 0.00 0.00 89 1015.9
20260904070005 23 49 0.0 0.0 0.00 0.00 0.00 89 1016.0
20260904065506 23 49 0.0 0.0 0.00 0.00 0.00 89 1016.0
20260904064005 23 49 0.0 0.0 0.00 0.00 0.00 88 1016.3
20260904063505 23 49 0.0 0.0 0.00 0.00 0.00 88 1016.3
20260904062505 23 49 0.0 0.0 0.00 0.00 0.00 88 1016.3
20260904062006 23 49 0.0 0.0 0.00 0.00 0.00 88 1016.3
20260904061505 24 49 0.0 0.0 0.00 0.00 0.00 88 1016.3
20260904061005 24 49 0.0 0.0 0.00 0.00 0.00 88 1016.3
20260904060506 24 49 0.0 0.0 0.00 0.00 0.00 88 1016.3
20260904055504 24 49 0.0 0.0 0.00 0.00 0.00 88 1016.3
20260904055005 24 49 0.0 0.0 0.00 0.00 0.00 88 1016.3
20260904054505 24 49 0.0 0.0 0.00 0.00 0.00 87 1016.3
20260904054005 24 49 0.0 0.0 0.00 0.00 0.00 87 1016.3
20260904053504 24 49 0.0 0.0 0.00 0.00 0.00 87 1016.3
20260904053004 24 49 0.0 0.0 0.00 0.00 0.00 87 1016.3
20260904052504 24 49 0.0 0.0 0.00 0.00 0.00 87 1016.3
20260904052006 24 49 0.0 0.0 0.00 0.00 0.00 87 1016.3
20260904051505 25 49 0.0 0.0 0.00 0.00 0.00 86 1016.3
20260904051005 25 49 0.0 0.0 0.00 0.00 0.00 86 1016.3
20260904050504 25 49 0.0 0.0 0.00 0.00 0.00 86 1016.3
20260904050005 25 49 0.0 0.0 0.00 0.00 0.00 86 1016.3
20260904045505 25 49 0.0 0.0 0.00 0.00 0.00 86 1016.3
20260904045005 25 49 0.0 0.0 0.00 0.00 0.00 86 1016.4
20260904044505 25 49 0.0 0.0 0.00 0.00 0.00 86 1016.4
20260904044005 25 49 0.0 0.0 0.00 0.00 0.00 86 1016.4
20260904043506 25 49 0.0 0.0 0.00 0.00 0.00 85 1016.4
20260904043005 25 49 0.0 0.0 0.00 0.00 0.00 85 1016.4
20260904042505 25 49 0.0 0.0 0.00 0.00 0.00 85 1016.4
20260904042006 25 49 0.0 0.0 0.00 0.00 0.00 85 1016.3
20260904041505 25 49 0.0 0.0 0.00 0.00 0.00 85 1016.3
20260904041005 25 49 0.0 0.0 0.00 0.00 0.00 84 1016.3
20260904040505 25 49 0.0 0.0 0.00 0.00 0.00 84 1016.3
20260904040006 26 49 0.0 0.0 0.00 0.00 0.00 84 1016.5
20260904035505 26 49 0.0 0.0 0.00 0.00 0.00 84 1016.5
20260904035006 26 49 0.0 1.6 0.00 0.00 0.00 83 1016.5
20260904034505 26 49 0.0 0.0 0.00 0.00 0.00 83 1016.5
20260904034006 26 49 0.0 0.0 0.00 0.00 0.00 83 1016.5
20260904033504 26 49 0.0 0.0 0.00 0.00 0.00 83 1016.5
20260904033006 26 49 0.0 0.0 0.00 0.00 0.00 82 1016.4
20260904032005 26 49 0.0 0.0 0.00 0.00 0.00 81 1016.4
20260904031505 26 49 0.0 0.0 0.00 0.00 0.00 81 1016.4
20260904031005 26 49 0.0 0.0 0.00 0.00 0.00 81 1016.4
20260904030504 26 49 0.0 0.0 0.00 0.00 0.00 80 1016.4
20260904025505 27 49 0.0 0.0 0.00 0.00 0.00 80 1016.4
20260904025005 27 49 0.0 0.0 0.00 0.00 0.00 79 1016.5
20260904024505 27 49 0.0 0.0 0.00 0.00 0.00 79 1016.6
20260904024006 27 49 0.0 0.0 0.00 0.00 0.00 79 1016.4
20260904023505 27 49 0.0 0.0 0.00 0.00 0.00 78 1016.4
20260904023005 27 49 0.0 0.0 0.00 0.00 0.00 78 1016.3
20260904022504 27 49 0.0 0.0 0.00 0.00 0.00 77 1016.3
20260904022005 27 49 0.0 0.0 0.00 0.00 0.00 77 1016.3
20260904021506 27 49 0.0 0.0 0.00 0.00 0.00 76 1016.3
20260904021005 28 49 0.0 0.0 0.00 0.00 0.00 76 1016.2
20260904020505 28 49 0.0 0.0 0.00 0.00 0.00 76 1016.2
20260904020005 28 49 0.0 0.0 0.00 0.00 0.00 75 1015.8
20260904015505 28 49 0.0 0.0 0.00 0.00 0.00 75 1015.8
20260904015005 28 49 0.0 0.0 0.00 0.00 0.00 74 1015.8
20260904014505 28 49 0.0 0.0 0.00 0.00 0.00 73 1015.8
20260904014005 28 49 0.0 0.0 0.00 0.00 0.00 72 1015.8
20260904013505 28 49 0.0 0.0 0.00 0.00 0.00 72 1015.8
20260904013005 28 49 0.0 0.0 0.00 0.00 0.00 71 1015.8
20260904012505 28 49 0.0 1.6 0.00 0.00 0.00 71 1015.8
20260904012005 28 49 0.0 1.6 0.00 0.00 0.00 71 1015.8
20260904011505 28 12 0.0 3.2 0.00 0.00 0.00 71 1015.8
20260904011006 28 12 1.6 4.8 0.00 0.00 0.00 71 1015.8
20260904010505 29 0 1.6 3.2 0.00 0.00 0.00 71 1015.8
20260904010005 29 0 1.6 4.8 0.00 0.00 0.00 70 1015.8
20260904005505 29 336 1.6 3.2 0.00 0.00 0.00 70 1015.8
20260904005005 30 5 0.0 0.0 0.00 0.00 0.00 70 1015.8
20260904004505 30 11 0.0 1.6 0.00 0.00 0.00 70 1015.8
20260904004006 30 15 0.0 3.2 0.00 0.00 0.00 70 1015.7
20260904003505 30 122 1.6 3.2 0.00 0.00 0.00 70 1015.7
20260904003004 30 122 1.6 4.8 0.00 0.00 0.00 69 1015.3
20260904002506 30 351 0.0 1.6 0.00 0.00 0.00 69 1015.3
20260904002005 31 351 1.6 3.2 0.00 0.00 0.00 69 1015.3
20260904001006 31 126 1.6 3.2 0.00 0.00 0.00 69 1015.2
20260904000506 31 126 0.0 1.6 0.00 0.00 0.00 66 1015.2
20260904000006 31 126 0.0 0.0 0.00 0.00 0.00 65 1015.2
20260903235505 31 126 0.0 1.6 0.00 0.00 0.00 63 1015.2
20260903235005 32 126 0.0 1.6 0.00 0.00 0.00 64 1015.2
20260903234505 32 126 0.0 0.0 0.00 0.00 0.00 64 1015.1
20260903234006 32 126 0.0 1.6 0.00 0.00 0.00 63 1014.9
20260903233505 32 126 0.0 1.6 0.00 0.00 0.00 63 1014.9
20260903233005 32 126 0.0 1.6 0.00 0.00 0.00 61 1014.8
20260903232504 32 126 0.0 1.6 0.00 0.00 0.00 60 1014.8
20260903232005 32 126 0.0 4.8 0.00 0.00 0.00 60 1014.8
20260903231505 32 16 1.6 3.2 0.00 0.00 0.00 59 1014.7
20260903230504 33 16 0.0 1.6 0.00 0.00 0.00 59 1014.7
20260903230005 33 16 0.0 1.6 0.00 0.00 0.00 59 1014.7
20260903225505 33 16 0.0 1.6 0.00 0.00 0.00 57 1014.7
20260903225005 33 16 1.6 4.8 0.00 0.00 0.00 56 1014.7
20260903224506 33 9 3.2 8.0 0.00 0.00 0.00 55 1014.7
20260903223505 33 16 3.2 11.3 0.00 0.00 0.00 55 1014.6
20260903223005 34 13 1.6 4.8 0.00 0.00 0.00 54 1014.6
20260903222504 34 13 0.0 1.6 0.00 0.00 0.00 54 1014.6
20260903221505 34 13 1.6 3.2 0.00 0.00 0.00 54 1014.6
20260903221006 34 13 1.6 4.8 0.00 0.00 0.00 52 1014.6
20260903220506 34 13 1.6 4.8 0.00 0.00 0.00 52 1014.6
20260903220005 34 13 3.2 8.0 0.00 0.00 0.00 52 1014.7
20260903215505 34 5 0.0 1.6 0.00 0.00 0.00 53 1014.7
20260903215005 34 5 0.0 1.6 0.00 0.00 0.00 52 1014.7
20260903214504 34 5 0.0 3.2 0.00 0.00 0.00 52 1014.7
20260903214005 35 5 1.6 4.8 0.00 0.00 0.00 52 1014.7
20260903213505 35 5 1.6 4.8 0.00 0.00 0.00 52 1014.7
20260903213004 35 1 3.2 4.8 0.00 0.00 0.00 51 1014.7
20260903212005 35 86 1.6 3.2 0.00 0.00 0.00 52 1014.7
20260903211505 35 86 1.6 3.2 0.00 0.00 0.00 51 1014.9
20260903211004 35 95 1.6 4.8 0.00 0.00 0.00 52 1014.9
20260903210505 35 14 1.6 4.8 0.00 0.00 0.00 50 1014.9
20260903204505 35 148 1.6 3.2 0.00 0.00 0.00 51 1016.0
20260903204005 35 120 1.6 4.8 0.00 0.00 0.00 52 1016.0
20260903203005 35 119 3.2 8.0 0.00 0.00 0.00 52 1016.0
20260903202506 35 9 1.6 4.8 0.00 0.00 0.00 53 1016.0
20260903202005 35 7 1.6 4.8 0.00 0.00 0.00 53 1016.0
20260903201505 35 126 1.6 3.2 0.00 0.00 0.00 52 1016.0
20260903200504 35 121 3.2 4.8 0.00 0.00 0.00 51 1016.0
20260903200004 35 132 3.2 4.8 0.00 0.00 0.00 51 1016.0
20260903195005 35 68 1.6 4.8 0.00 0.00 0.00 54 1016.0
20260903194506 34 123 3.2 4.8 0.00 0.00 0.00 56 1016.0
20260903194005 34 106 3.2 4.8 0.00 0.00 0.00 58 1016.0